Wind_Speed
12 13 13 14 14 14 14 15 15 15 15 15 15 16 16 15 13 13 13 13 13 12 11 10 10 8 8 9 9 10 12 13 14 16 17 18 18 20 21 22 23 25 25
13 13 14 14 14 15 15 15 15 14 15 15 15 15 15 15 14 14 13 13 13 13 12 10 9 9 8 8 8 9 11 12 13 15 16 17 18 19 21 21 22 24 25
13 13 14 14 14 15 15 15 15 15 15 15 15 15 15 15 15 14 13 13 13 12 12 11 10 9 8 8 8 9 10 11 12 14 15 16 17 19 20 21 22 23 25
13 14 14 14 15 15 16 16 15 15 15 15 14 15 15 15 15 14 14 14 13 12 11 11 10 9 8 8 9 9 10 11 12 13 14 15 17 18 20 21 22 23 24
14 14 15 15 16 16 16 16 16 16 15 15 15 15 15 15 15 15 15 14 13 12 12 11 11 10 10 10 10 10 10 10 11 12 13 14 16 17 19 21 22 23 24
15 15 16 16 16 17 17 17 17 16 16 15 15 15 15 15 15 15 15 14 13 13 13 12 12 11 11 11 10 10 11 11 11 12 13 14 16 16 18 19 21 22 23
17 17 17 17 17 18 18 18 18 18 17 16 16 16 16 16 16 16 16 15 14 14 14 13 12 12 12 11 11 11 11 11 11 12 13 15 15 16 17 18 20 22 23
19 19 19 19 19 19 20 19 19 19 19 18 18 17 17 17 17 17 16 16 16 15 14 14 13 13 13 12 12 12 12 12 12 13 13 13 14 15 16 17 19 21 23
21 21 21 21 21 22 22 22 21 21 21 20 19 19 18 19 19 18 18 17 17 16 15 15 14 13 14 13 12 12 12 12 13 14 13 14 15 15 16 17 19 20 21
23 23 23 23 24 24 24 24 24 23 23 22 22 22 21 21 20 19 19 19 18 18 17 16 16 15 15 14 13 13 13 13 14 14 14 15 16 16 17 17 18 19 21
25 25 26 26 26 26 26 26 26 26 26 25 25 24 23 23 22 21 21 20 20 19 18 18 17 17 16 16 15 15 14 15 15 15 15 15 16 16 17 18 19 20 21
28 28 28 28 29 29 29 29 29 29 28 28 26 26 25 25 24 23 23 22 22 21 21 20 19 19 18 17 16 16 16 16 16 15 15 15 16 16 16 17 19 20 21
30 30 31 31 31 31 31 31 31 30 30 29 28 28 27 27 26 26 26 25 25 24 23 22 21 21 21 20 19 18 17 17 17 16 16 16 16 16 17 17 18 19 20
33 33 33 33 34 34 33 33 33 32 32 31 31 30 30 29 29 29 28 28 27 27 26 25 24 23 23 22 22 21 20 19 19 18 18 18 18 17 18 19 19 18 19
35 35 36 36 36 36 35 35 34 33 33 32 32 33 32 32 31 31 31 30 30 30 29 28 27 26 25 25 24 23 22 21 21 20 20 19 19 19 19 20 20 20 20
37 37 37 37 37 37 36 35 35 34 34 34 34 34 34 34 33 32 31 30 31 31 31 30 29 29 28 27 26 26 24 24 23 23 22 22 21 20 20 20 20 20 20
39 38 38 39 39 38 37 37 36 36 35 36 36 36 35 35 35 34 32 32 32 33 32 32 31 31 31 30 29 28 27 26 25 25 25 24 24 23 23 23 22 22 22
41 40 40 40 40 39 39 38 38 37 37 37 37 37 36 36 36 35 34 34 34 34 34 34 34 33 32 31 31 30 30 29 28 27 27 26 26 25 25 25 24 24 24
42 42 42 42 41 41 40 40 39 39 38 38 38 37 37 37 37 36 36 36 36 36 36 36 35 35 34 33 32 32 32 31 30 29 29 28 28 27 27 27 26 26 26
44 44 44 43 43 42 42 41 40 40 39 38 38 38 38 38 37 36 36 37 37 37 36 36 35 35 35 34 34 33 33 33 32 32 30 30 29 29 28 28 28 28 27
46 46 46 45 44 43 42 41 41 40 40 40 39 39 39 39 38 37 37 37 37 37 36 36 35 35 35 35 34 34 35 34 34 34 32 31 31 30 30 30 30 29 29
48 47 46 45 45 44 43 42 42 42 41 41 40 40 40 39 39 38 37 37 37 37 36 36 35 35 35 35 35 34 35 35 34 34 34 32 31 31 30 30 31 31 31
48 47 46 45 45 45 44 43 43 43 42 41 40 40 40 40 39 38 37 37 38 38 37 36 35 34 34 35 34 34 33 34 34 34 34 33 32 31 31 31 31 31 31
48 48 47 46 45 45 45 44 43 43 42 41 41 40 40 40 39 38 37 37 38 38 37 35 34 34 34 35 35 34 33 32 33 33 34 33 33 32 32 32 31 31 31
48 48 47 47 46 45 45 44 44 43 42 41 41 40 40 39 38 37 37 37 37 37 37 36 35 34 35 35 35 35 34 33 32 33 33 34 34 33 32 32 32 31 32
48 48 47 47 46 46 46 44 43 42 42 41 41 40 39 38 37 37 37 37 36 36 36 36 35 35 35 35 35 35 35 34 32 32 32 33 34 33 32 32 32 32 32
Wind_Direction
312 313 316 318 318 318 320 323 325 326 327 329 331 333 333 332 330 332 335 336 336 336 331 327 321 311 298 288 271 263 257 253 251 249 247 243 242 237 233 232 233 233 233
312 313 314 315 316 317 318 320 323 324 327 329 330 330 331 332 331 329 332 335 336 335 331 326 323 315 303 291 279 269 264 258 253 252 248 245 242 239 234 233 233 233 233
312 312 312 313 314 315 317 318 319 321 323 326 327 328 328 330 332 330 330 330 330 331 331 327 321 313 306 297 286 276 270 263 258 254 249 247 243 240 237 234 233 235 235
311 311 311 313 314 314 314 315 316 317 319 322 324 325 326 328 329 330 330 331 329 328 329 326 323 313 305 300 292 285 275 268 263 257 253 247 244 241 238 236 236 236 236
308 311 312 313 314 315 316 316 316 316 317 319 321 323 324 325 326 326 326 326 327 326 324 320 318 314 307 300 294 288 281 273 265 259 256 250 247 242 240 239 239 238 238
305 308 309 310 312 314 315 314 315 315 315 315 318 318 319 321 323 322 322 323 324 324 322 317 313 313 308 300 294 291 286 279 273 264 259 253 248 245 242 242 241 240 238
302 304 306 307 309 310 312 311 311 311 310 310 313 314 314 316 318 318 318 319 318 318 318 317 313 309 308 300 294 290 288 283 278 272 265 259 252 250 246 244 243 242 241
298 300 302 303 304 304 306 306 305 306 305 304 307 307 308 310 312 313 312 313 314 314 314 313 310 306 306 300 293 288 284 281 279 276 270 262 255 251 249 247 246 244 243
296 297 298 299 300 300 301 301 301 301 300 299 300 302 302 303 305 306 306 308 309 309 310 310 308 304 305 300 293 289 286 282 278 274 270 263 257 256 254 251 250 247 243
295 295 295 296 296 297 297 297 297 298 297 295 295 297 298 298 299 299 299 302 303 304 304 305 305 303 300 301 297 292 287 281 279 276 269 265 260 258 256 253 251 250 247
293 293 293 293 294 294 295 295 295 295 294 293 292 293 294 293 293 294 295 295 296 296 297 298 298 298 297 297 296 294 291 287 281 278 274 268 265 265 259 253 251 251 251
291 291 291 292 292 293 293 293 293 292 291 291 290 290 290 288 288 289 289 289 289 289 290 291 291 292 291 291 291 291 289 287 284 280 276 273 271 267 263 259 256 255 254
291 291 291 291 291 291 291 291 291 290 289 288 286 286 286 284 284 284 284 284 284 284 284 285 285 285 285 285 286 286 286 283 280 278 277 274 272 268 263 264 262 260 257
290 290 290 290 291 291 290 290 289 288 287 286 284 284 283 282 281 281 281 281 281 280 279 279 280 281 280 279 279 279 280 280 278 275 275 273 270 269 265 263 263 262 259
290 290 290 290 290 290 290 289 287 287 286 286 284 283 282 281 278 279 279 278 278 277 276 275 276 276 276 275 274 274 275 275 275 273 273 273 271 268 266 265 263 261 259
290 290 289 289 290 290 289 288 287 286 286 284 283 283 282 280 277 277 277 276 276 275 274 273 272 272 271 271 270 270 270 271 271 271 270 270 270 268 267 267 267 264 260
290 290 289 290 290 289 288 287 286 284 284 283 282 282 281 280 277 276 277 275 275 275 274 273 272 270 269 267 267 267 266 267 267 267 268 268 268 266 264 264 264 264 262
289 289 289 289 289 288 287 287 286 284 283 282 281 280 279 278 276 275 276 274 274 274 274 272 270 269 268 266 265 264 264 264 265 265 264 265 265 265 263 263 263 262 261
288 288 288 289 288 287 287 286 285 284 283 282 280 279 279 278 276 276 276 276 275 274 273 272 269 267 265 265 264 262 262 262 263 264 264 263 263 264 264 263 263 263 262
288 287 288 288 287 286 285 285 284 283 282 282 280 279 279 278 277 277 277 275 274 273 271 270 268 266 264 263 262 261 260 260 261 262 263 262 261 262 262 263 262 262 263
288 287 287 286 285 284 284 283 282 282 281 281 280 278 278 278 277 277 276 274 273 271 270 269 268 266 264 263 262 261 259 259 259 259 260 261 260 259 260 261 262 262 262
288 288 287 286 284 284 282 282 281 281 280 280 280 278 278 276 276 277 277 274 272 270 269 268 267 266 265 263 262 262 261 259 258 258 258 259 259 259 260 260 261 261 261
289 288 286 285 284 283 281 280 280 280 279 279 278 278 277 276 275 276 276 274 272 269 268 267 265 265 263 261 260 261 261 259 258 257 257 257 258 259 259 259 259 261 261
289 288 286 285 283 282 281 280 279 278 277 276 276 277 277 276 275 275 273 272 271 268 266 264 263 262 262 261 260 259 259 259 258 257 257 256 257 258 258 259 258 258 259
289 288 286 285 283 282 281 280 279 278 276 275 275 275 275 274 274 273 271 271 270 267 265 262 261 260 260 259 260 260 260 259 257 256 256 256 256 257 257 257 258 259 259
289 288 287 285 284 282 281 280 279 277 275 274 273 272 272 272 272 272 270 269 268 266 263 261 261 260 259 259 259 259 259 258 257 257 258 257 256 256 256 257 257 258 261
Height
5832 5831 5830 5828 5827 5825 5824 5822 5820 5818 5817 5815 5812 5810 5808 5806 5804 5802 5800 5797 5795 5794 5792 5791 5789 5788 5788 5788 5788 5789 5790 5791 5793 5794 5796 5798 5801 5803 5806 5809 5813 5816 5820
5829 5828 5827 5825 5824 5822 5821 5819 5818 5816 5814 5812 5810 5808 5806 5804 5802 5800 5798 5796 5794 5792 5791 5789 5788 5787 5786 5786 5786 5787 5787 5788 5790 5791 5792 5794 5796 5798 5801 5804 5808 5811 5815
5826 5825 5824 5822 5821 5819 5817 5816 5815 5813 5812 5810 5808 5806 5804 5802 5800 5798 5796 5795 5793 5791 5789 5788 5786 5785 5785 5784 5784 5784 5785 5785 5786 5787 5788 5790 5792 5794 5796 5800 5803 5806 5809
5823 5822 5820 5819 5817 5816 5814 5813 5811 5810 5809 5808 5806 5804 5802 5800 5798 5796 5795 5793 5791 5790 5788 5786 5785 5784 5783 5783 5782 5782 5782 5782 5782 5783 5784 5786 5788 5789 5792 5795 5798 5801 5804
5820 5819 5817 5816 5814 5813 5811 5809 5808 5807 5806 5805 5803 5802 5800 5798 5797 5795 5793 5791 5789 5788 5786 5785 5783 5782 5781 5780 5780 5779 5779 5779 5779 5780 5781 5782 5783 5785 5787 5790 5792 5795 5798
5817 5816 5814 5813 5811 5810 5808 5806 5805 5803 5802 5801 5800 5799 5798 5796 5794 5793 5791 5789 5788 5786 5784 5783 5781 5780 5779 5778 5777 5777 5777 5776 5776 5777 5777 5778 5779 5780 5782 5784 5787 5790 5793
5813 5812 5811 5809 5808 5806 5805 5803 5801 5800 5799 5798 5796 5795 5794 5793 5791 5790 5788 5786 5785 5784 5782 5781 5779 5778 5777 5776 5775 5774 5774 5773 5773 5774 5773 5774 5775 5776 5777 5779 5781 5784 5787
5809 5808 5806 5805 5803 5802 5800 5799 5797 5796 5795 5794 5793 5792 5790 5789 5788 5786 5785 5783 5782 5781 5779 5778 5777 5775 5774 5773 5772 5772 5771 5770 5770 5770 5770 5770 5770 5771 5773 5775 5776 5778 5780
5804 5802 5801 5799 5798 5797 5795 5794 5792 5791 5790 5789 5788 5787 5786 5785 5784 5782 5781 5780 5779 5778 5776 5775 5774 5773 5771 5770 5769 5768 5768 5767 5766 5766 5766 5766 5766 5767 5768 5769 5771 5772 5774
5798 5796 5795 5794 5792 5791 5789 5788 5786 5785 5784 5783 5783 5782 5781 5780 5779 5777 5776 5775 5775 5774 5772 5771 5770 5769 5768 5767 5765 5764 5764 5763 5763 5762 5762 5762 5762 5763 5763 5764 5765 5767 5769
5791 5790 5788 5787 5785 5784 5782 5781 5779 5778 5777 5776 5776 5775 5774 5773 5772 5772 5771 5770 5769 5769 5768 5767 5766 5765 5764 5763 5761 5760 5760 5759 5758 5758 5758 5758 5758 5759 5759 5759 5761 5762 5763
5784 5782 5781 5779 5778 5776 5774 5773 5771 5770 5769 5768 5767 5767 5766 5766 5765 5765 5764 5763 5763 5762 5762 5761 5760 5759 5759 5758 5757 5756 5755 5754 5754 5754 5753 5753 5754 5754 5754 5755 5755 5756 5757
5775 5774 5772 5771 5769 5767 5765 5764 5762 5761 5760 5759 5758 5758 5757 5757 5756 5756 5756 5755 5755 5755 5754 5754 5754 5753 5752 5752 5751 5751 5750 5750 5749 5749 5749 5749 5749 5749 5749 5749 5750 5750 5751
5766 5765 5763 5761 5759 5758 5756 5754 5752 5751 5750 5749 5748 5748 5747 5747 5747 5747 5746 5746 5746 5746 5746 5746 5746 5745 5745 5745 5745 5745 5744 5744 5744 5744 5744 5743 5743 5743 5743 5744 5744 5744 5745
5756 5754 5752 5750 5749 5747 5745 5743 5741 5740 5739 5738 5737 5737 5736 5736 5736 5736 5735 5735 5736 5736 5736 5737 5737 5737 5737 5737 5737 5737 5737 5737 5737 5738 5737 5737 5737 5737 5737 5737 5738 5738 5739
5745 5743 5741 5739 5737 5735 5734 5732 5731 5729 5728 5726 5726 5725 5725 5724 5724 5724 5723 5723 5724 5724 5725 5726 5726 5727 5728 5728 5728 5729 5729 5729 5730 5730 5730 5730 5731 5730 5731 5731 5731 5731 5732
5733 5732 5730 5728 5726 5724 5722 5721 5720 5719 5717 5715 5714 5713 5713 5712 5712 5712 5711 5712 5712 5713 5713 5714 5715 5716 5716 5717 5718 5719 5719 5720 5721 5721 5722 5722 5723 5723 5723 5724 5724 5724 5725
5721 5719 5717 5715 5713 5712 5710 5709 5707 5706 5705 5704 5703 5701 5701 5700 5700 5699 5699 5700 5701 5701 5701 5702 5703 5704 5705 5706 5707 5708 5709 5710 5710 5711 5712 5713 5714 5714 5715 5715 5716 5717 5717
5709 5707 5705 5703 5700 5699 5697 5696 5694 5693 5692 5691 5691 5690 5689 5688 5687 5687 5687 5688 5688 5688 5688 5689 5689 5691 5692 5693 5695 5696 5697 5698 5699 5701 5702 5703 5704 5704 5705 5706 5707 5708 5708
5696 5693 5691 5689 5687 5685 5684 5682 5681 5680 5679 5678 5678 5677 5676 5675 5675 5675 5674 5674 5675 5675 5675 5675 5676 5678 5679 5680 5682 5683 5685 5686 5688 5689 5690 5691 5693 5694 5695 5696 5697 5698 5699
5681 5679 5677 5675 5673 5671 5670 5668 5667 5667 5666 5665 5664 5664 5663 5663 5662 5662 5662 5662 5661 5661 5662 5663 5663 5665 5666 5667 5668 5670 5672 5674 5676 5677 5678 5679 5681 5683 5684 5686 5687 5688 5689
5666 5664 5662 5660 5658 5657 5655 5654 5653 5652 5652 5651 5651 5650 5649 5649 5649 5649 5649 5649 5648 5648 5649 5649 5650 5652 5653 5654 5656 5657 5659 5661 5663 5664 5666 5668 5669 5671 5673 5674 5676 5677 5679
5651 5648 5646 5645 5643 5642 5641 5640 5639 5638 5637 5637 5636 5636 5636 5636 5636 5636 5636 5635 5635 5635 5636 5636 5637 5639 5640 5642 5643 5644 5646 5648 5650 5652 5654 5656 5658 5659 5661 5663 5665 5666 5668
5635 5633 5631 5629 5628 5627 5625 5625 5624 5623 5622 5622 5622 5622 5622 5622 5622 5622 5622 5622 5622 5622 5623 5624 5625 5626 5627 5629 5631 5632 5634 5635 5637 5639 5641 5644 5646 5648 5649 5651 5653 5655 5656
5620 5617 5615 5613 5612 5611 5610 5609 5608 5607 5607 5607 5607 5607 5607 5608 5608 5608 5608 5608 5608 5609 5609 5611 5612 5613 5615 5616 5618 5620 5621 5623 5625 5627 5629 5632 5634 5636 5638 5639 5641 5643 5645
5604 5602 5599 5597 5596 5595 5594 5593 5593 5592 5592 5592 5592 5593 5593 5593 5593 5594 5595 5595 5595 5596 5596 5598 5599 5601 5602 5604 5606 5608 5609 5611 5613 5615 5617 5620 5622 5624 5626 5628 5630 5631 5633